User: anonymous
Location: Caltech
(34.1382°N, 118.1253°W)
Time: 02:47:20
(UTC-07:00)
Language:

Spot 4 Rocket - Orbit

View from above orbital plane
View from above orbital plane
View from above satellite
View from above satellite

Ground track
Ground track

The orbit data is extracted from the following two-line orbital elements,

1 25261U 98017B   14272.98375510  .00000632  00000-0  24645-3 0  6908
2 25261 098.4195 223.8617 0004262 135.3523 271.6695 14.33000305863023
Epoch (UTC): 29 September 2014 23:36:36
Eccentricity: 0.0004262
inclination: 98.4195°
perigee height: 778 km
apogee height: 785 km
right ascension of ascending node: 223.8617°
argument of perigee: 135.3523°
revolutions per day: 14.33000305
mean anomaly at epoch: 271.6695°
orbit number at epoch: 86302

The dashed part of the orbit path shows where the satellite is in the earth's shadow,  

DLR